| time (UTC) | temp C | wind direction | speed KPH | gust KPH | rain 1hr cm | rain 24hr cm | rain mn cm | humidity % | barometer mb |
| 20260505153026 | 15 | 281 | 9.7 | 19.3 | 0.00 | 0.00 | 0.00 | 72 | 1008.3 |
| 20260505151533 | 15 | 247 | 9.7 | 16.1 | 0.00 | 0.00 | 0.00 | 72 | 1008.3 |
| 20260505124512 | 13 | 263 | 9.7 | 20.9 | 0.00 | 0.00 | 0.00 | 77 | 1006.9 |
| 20260505123004 | 13 | 272 | 3.2 | 19.3 | 0.00 | 0.00 | 0.00 | 77 | 1006.7 |
| 20260505121504 | 13 | 240 | 3.2 | 24.1 | 0.00 | 0.00 | 0.00 | 78 | 1006.6 |
| 20260505120002 | 13 | 212 | 8.0 | 12.9 | 0.00 | 0.00 | 0.00 | 78 | 1006.6 |
| 20260505114600 | 14 | 188 | 6.4 | 17.7 | 0.00 | 0.00 | 0.00 | 75 | 1006.6 |
| 20260505113104 | 14 | 244 | 6.4 | 19.3 | 0.00 | 0.00 | 0.00 | 74 | 1006.4 |
| 20260505111559 | 13 | 254 | 4.8 | 19.3 | 0.00 | 0.00 | 0.00 | 77 | 1006.4 |
| 20260505101553 | 15 | 269 | 9.7 | 19.3 | 0.00 | 0.00 | 0.00 | 75 | 1006.0 |
| 20260505100044 | 15 | 315 | 12.9 | 29.0 | 0.00 | 0.00 | 0.00 | 73 | 1005.9 |
| 20260505094545 | 15 | 245 | 11.3 | 20.9 | 0.00 | 0.00 | 0.00 | 76 | 1005.8 |
| 20260505093050 | 15 | 223 | 4.8 | 9.7 | 0.00 | 0.00 | 0.00 | 76 | 1005.8 |
| 20260505091538 | 15 | 223 | 6.4 | 20.9 | 0.00 | 0.00 | 0.00 | 76 | 1005.7 |
| 20260505090037 | 15 | 279 | 14.5 | 24.1 | 0.00 | 0.00 | 0.00 | 76 | 1005.6 |
| 20260505084536 | 15 | 284 | 14.5 | 20.9 | 0.00 | 0.00 | 0.00 | 78 | 1005.6 |
| 20260505083040 | 15 | 259 | 12.9 | 19.3 | 0.00 | 0.00 | 0.00 | 77 | 1005.7 |
| 20260505081533 | 15 | 281 | 14.5 | 22.5 | 0.00 | 0.00 | 0.00 | 76 | 1005.5 |
| 20260505080031 | 15 | 254 | 12.9 | 22.5 | 0.00 | 0.00 | 0.00 | 76 | 1005.6 |
| 20260505074528 | 16 | 275 | 11.3 | 20.9 | 0.00 | 0.00 | 0.00 | 76 | 1005.5 |
| 20260505073026 | 16 | 262 | 8.0 | 12.9 | 0.00 | 0.00 | 0.00 | 75 | 1005.6 |
| 20260505071524 | 16 | 229 | 8.0 | 11.3 | 0.00 | 0.00 | 0.00 | 75 | 1005.5 |
| 20260505070025 | 16 | 242 | 14.5 | 24.1 | 0.00 | 0.00 | 0.00 | 75 | 1005.2 |
| 20260505064520 | 16 | 244 | 12.9 | 19.3 | 0.00 | 0.00 | 0.00 | 74 | 1005.1 |
| 20260505063020 | 16 | 223 | 11.3 | 19.3 | 0.00 | 0.00 | 0.00 | 73 | 1005.1 |
| 20260505061522 | 16 | 213 | 12.9 | 22.5 | 0.00 | 0.00 | 0.00 | 72 | 1005.1 |
| 20260505060019 | 17 | 237 | 12.9 | 25.7 | 0.00 | 0.00 | 0.00 | 70 | 1004.9 |
| 20260505054519 | 17 | 238 | 14.5 | 25.7 | 0.00 | 0.00 | 0.00 | 69 | 1004.9 |
| 20260505053023 | 17 | 247 | 17.7 | 27.4 | 0.00 | 0.00 | 0.00 | 68 | 1004.9 |
| 20260505051518 | 17 | 223 | 14.5 | 27.4 | 0.00 | 0.00 | 0.00 | 67 | 1004.8 |
| 20260505041517 | 18 | 269 | 22.5 | 38.6 | 0.00 | 0.00 | 0.00 | 62 | 1004.0 |
| 20260505040034 | 18 | 263 | 25.7 | 41.8 | 0.00 | 0.00 | 0.00 | 61 | 1003.8 |
| 20260505034527 | 18 | 268 | 27.4 | 41.8 | 0.00 | 0.00 | 0.00 | 61 | 1003.6 |
| 20260505033016 | 19 | 269 | 25.7 | 40.2 | 0.00 | 0.00 | 0.00 | 60 | 1003.3 |
| 20260505031515 | 19 | 271 | 27.4 | 41.8 | 0.00 | 0.00 | 0.00 | 60 | 1003.1 |
| 20260505030017 | 20 | 231 | 27.4 | 38.6 | 0.00 | 0.00 | 0.00 | 59 | 1003.0 |
| 20260505024513 | 20 | 251 | 25.7 | 40.2 | 0.00 | 0.00 | 0.00 | 58 | 1003.0 |
| 20260505023013 | 21 | 267 | 22.5 | 32.2 | 0.00 | 0.00 | 0.00 | 57 | 1003.0 |
| 20260505021513 | 21 | 262 | 25.7 | 33.8 | 0.00 | 0.00 | 0.00 | 56 | 1003.0 |
| 20260505020014 | 22 | 248 | 24.1 | 38.6 | 0.00 | 0.00 | 0.00 | 54 | 1002.9 |
| 20260505014514 | 22 | 252 | 25.7 | 37.0 | 0.00 | 0.00 | 0.00 | 52 | 1002.9 |
| 20260505013011 | 22 | 251 | 29.0 | 40.2 | 0.00 | 0.00 | 0.00 | 50 | 1003.0 |
| 20260505011510 | 23 | 269 | 27.4 | 33.8 | 0.00 | 0.00 | 0.00 | 49 | 1003.0 |
| 20260505010009 | 23 | 277 | 22.5 | 33.8 | 0.00 | 0.00 | 0.00 | 48 | 1003.2 |
| 20260505004512 | 24 | 264 | 17.7 | 29.0 | 0.00 | 0.00 | 0.00 | 47 | 1003.3 |
| 20260505003006 | 25 | 226 | 19.3 | 25.7 | 0.00 | 0.00 | 0.00 | 44 | 1003.3 |
| 20260505001505 | 25 | 230 | 20.9 | 27.4 | 0.00 | 0.00 | 0.00 | 43 | 1003.4 |
| 20260505000004 | 26 | 263 | 22.5 | 29.0 | 0.00 | 0.00 | 0.00 | 39 | 1003.4 |
| 20260504234503 | 26 | 262 | 20.9 | 32.2 | 0.00 | 0.00 | 0.00 | 36 | 1003.5 |
| 20260504233003 | 26 | 277 | 20.9 | 29.0 | 0.00 | 0.00 | 0.00 | 35 | 1003.5 |
| 20260504231502 | 26 | 272 | 20.9 | 29.0 | 0.00 | 0.00 | 0.00 | 31 | 1003.6 |
| 20260504230001 | 26 | 269 | 19.3 | 27.4 | 0.00 | 0.00 | 0.00 | 31 | 1003.6 |
| 20260504224604 | 26 | 267 | 16.1 | 27.4 | 0.00 | 0.00 | 0.00 | 33 | 1003.9 |
| 20260504223058 | 27 | 233 | 14.5 | 24.1 | 0.00 | 0.00 | 0.00 | 31 | 1004.0 |
| 20260504221555 | 27 | 208 | 12.9 | 24.1 | 0.00 | 0.00 | 0.00 | 33 | 1004.2 |
| 20260504214556 | 26 | 253 | 9.7 | 20.9 | 0.00 | 0.00 | 0.00 | 32 | 1004.4 |
| 20260504213108 | 26 | 251 | 12.9 | 17.7 | 0.00 | 0.00 | 0.00 | 34 | 1004.6 |
| 20260504211550 | 26 | 192 | 9.7 | 24.1 | 0.00 | 0.00 | 0.00 | 35 | 1004.7 |
| 20260504210049 | 26 | 212 | 9.7 | 22.5 | 0.00 | 0.00 | 0.00 | 37 | 1004.8 |
| 20260504204555 | 26 | 196 | 9.7 | 16.1 | 0.00 | 0.00 | 0.00 | 38 | 1005.0 |
| 20260504203049 | 26 | 166 | 6.4 | 12.9 | 0.00 | 0.00 | 0.00 | 35 | 1005.0 |
| 20260504201543 | 26 | 283 | 3.2 | 9.7 | 0.00 | 0.00 | 0.00 | 37 | 1005.2 |
| 20260504200041 | 26 | 174 | 3.2 | 9.7 | 0.00 | 0.00 | 0.00 | 38 | 1005.4 |
| 20260504194541 | 25 | 189 | 6.4 | 11.3 | 0.00 | 0.00 | 0.00 | 34 | 1005.5 |
| 20260504193054 | 26 | 165 | 6.4 | 11.3 | 0.00 | 0.00 | 0.00 | 34 | 1005.5 |
| 20260504191537 | 25 | 164 | 3.2 | 9.7 | 0.00 | 0.00 | 0.00 | 37 | 1005.6 |
| 20260504190038 | 25 | 163 | 8.0 | 12.9 | 0.00 | 0.00 | 0.00 | 39 | 1005.6 |
| 20260504184533 | 25 | 229 | 8.0 | 11.3 | 0.00 | 0.00 | 0.00 | 42 | 1005.7 |
| 20260504183034 | 25 | 194 | 3.2 | 8.0 | 0.00 | 0.00 | 0.00 | 43 | 1005.6 |
| 20260504181534 | 24 | 184 | 1.6 | 6.4 | 0.00 | 0.00 | 0.00 | 45 | 1005.7 |
| 20260504180027 | 23 | 217 | 4.8 | 12.9 | 0.00 | 0.00 | 0.00 | 46 | 1005.7 |
| 20260504174525 | 23 | 329 | 3.2 | 12.9 | 0.00 | 0.00 | 0.00 | 47 | 1005.7 |
| 20260504173022 | 22 | 131 | 0.0 | 8.0 | 0.00 | 0.00 | 0.00 | 51 | 1005.8 |
| 20260504171520 | 22 | 116 | 3.2 | 6.4 | 0.00 | 0.00 | 0.00 | 60 | 1005.8 |